DW4127 Weather Reports


Display with metric or nautical units.
time (UTC)temp
F
wind
direction
speed
MPH
gust
MPH
rain 1hr
in
rain 24hr
in
rain mn
in
humidity
%
barometer
mb
20260902202555 102 90 2.0 5.0 0.00 0.00 0.00 42 1011.6
20260902201535 101 23 2.0 6.0 0.00 0.00 0.00 42 1011.8
20260902200535 100 45 3.0 14.0 0.00 0.00 0.00 43 1012.1
20260902195535 101 23 2.0 6.0 0.00 0.00 0.00 42 1012.2
20260902194535 100 23 2.0 5.0 0.00 0.00 0.00 44 1012.3
20260902193535 101 68 2.0 5.0 0.00 0.00 0.00 43 1012.5
20260902192535 101 90 1.0 4.0 0.00 0.00 0.00 45 1012.7
20260902191535 99 68 2.0 6.0 0.00 0.00 0.00 42 1012.8
20260902190555 100 113 1.0 4.0 0.00 0.00 0.00 44 1012.9
20260902185535 99 90 2.0 7.0 0.00 0.00 0.00 44 1013.2
20260902184535 99 45 2.0 8.0 0.00 0.00 0.00 44 1013.4
20260902183535 97 113 2.0 8.0 0.00 0.00 0.00 49 1013.4
20260902182535 98 90 3.0 10.0 0.00 0.00 0.00 47 1013.6
20260902181535 97 135 1.0 4.0 0.00 0.00 0.00 50 1013.8
20260902180535 96 90 4.0 9.0 0.00 0.00 0.00 48 1014.1
20260902175535 97 90 2.0 11.0 0.00 0.00 0.00 51 1014.4
20260902174535 96 68 2.0 4.0 0.00 0.00 0.00 52 1014.7
20260902173535 95 90 1.0 4.0 0.00 0.00 0.00 53 1014.6
20260902172535 95 68 2.0 5.0 0.00 0.00 0.00 54 1014.8
20260902171535 95 90 1.0 8.0 0.00 0.00 0.00 54 1015.0
20260902170535 92 90 2.0 4.0 0.00 0.00 0.00 59 1015.0
20260902165535 91 113 2.0 7.0 0.00 0.00 0.00 59 1015.2
20260902164535 92 90 5.0 10.0 0.00 0.00 0.00 58 1015.4
20260902163535 92 90 3.0 8.0 0.00 0.00 0.00 59 1015.4
20260902162535 91 90 2.0 7.0 0.00 0.00 0.00 60 1015.4
20260902161535 91 90 1.0 6.0 0.00 0.00 0.00 59 1015.4
20260902160537 91 68 1.0 4.0 0.00 0.00 0.00 60 1015.5
20260902155537 90 90 1.0 6.0 0.00 0.00 0.00 63 1015.6
20260902154537 89 90 1.0 3.0 0.00 0.00 0.00 62 1015.6
20260902153537 88 90 3.0 8.0 0.00 0.00 0.00 65 1015.6
20260902152617 89 113 1.0 4.0 0.00 0.00 0.00 66 1015.6
20260902151537 86 135 2.0 7.0 0.00 0.00 0.00 68 1015.4
20260902150537 87 113 1.0 6.0 0.00 0.00 0.00 69 1015.3
20260902145537 86 90 1.0 4.0 0.00 0.00 0.00 68 1015.4
20260902144537 85 90 3.0 7.0 0.00 0.00 0.00 69 1015.3
20260902143537 85 90 3.0 6.0 0.00 0.00 0.00 71 1015.3
20260902142535 85 68 1.0 5.0 0.00 0.00 0.00 71 1015.4
20260902141537 84 113 1.0 3.0 0.00 0.00 0.00 72 1015.4
20260902140537 83 113 3.0 6.0 0.00 0.00 0.00 73 1015.2
20260902135537 83 90 2.0 7.0 0.00 0.00 0.00 74 1015.2
20260902134537 83 90 3.0 7.0 0.00 0.00 0.00 74 1015.1
20260902133537 82 90 1.0 3.0 0.00 0.00 0.00 75 1015.0
20260902132537 81 113 3.0 9.0 0.00 0.00 0.00 76 1015.2
20260902131537 81 90 2.0 5.0 0.00 0.00 0.00 76 1015.2
20260902130537 81 113 2.0 6.0 0.00 0.00 0.00 75 1015.1
20260902125537 81 90 5.0 9.0 0.00 0.00 0.00 75 1015.0
20260902124537 80 90 2.0 4.0 0.00 0.00 0.00 75 1014.9
20260902123536 80 90 2.0 4.0 0.00 0.00 0.00 75 1014.8
20260902122557 80 90 2.0 4.0 0.00 0.00 0.00 75 1014.6
20260902121537 79 90 2.0 5.0 0.00 0.00 0.00 76 1014.6
20260902120536 79 0.0 0.0 0.00 0.00 0.00 76 1014.6
20260902115537 79 0.0 0.0 0.00 0.00 0.00 76 1014.6
20260902114537 79 0.0 0.0 0.00 0.00 0.00 76 1014.7
20260902113537 79 0.0 0.0 0.00 0.00 0.00 75 1014.8
20260902112536 79 0.0 0.0 0.00 0.00 0.00 75 1014.7
20260902111617 80 0.0 0.0 0.00 0.00 0.00 74 1014.7
20260902110536 80 0.0 0.0 0.00 0.00 0.00 73 1014.8
20260902105536 80 0.0 0.0 0.00 0.00 0.00 73 1014.6
20260902104537 80 90 1.0 2.0 0.00 0.00 0.00 73 1014.6
20260902103536 80 0.0 2.0 0.00 0.00 0.00 73 1014.6
20260902102537 81 0.0 0.0 0.00 0.00 0.00 72 1014.7
20260902101537 81 0.0 1.0 0.00 0.00 0.00 72 1014.6
20260902100537 81 0.0 0.0 0.00 0.00 0.00 72 1014.7
20260902095537 81 0.0 0.0 0.00 0.00 0.00 71 1014.6
20260902094537 81 0.0 0.0 0.00 0.00 0.00 71 1014.6
20260902093616 81 0.0 0.0 0.00 0.00 0.00 72 1014.6
20260902092536 81 0.0 0.0 0.00 0.00 0.00 71 1014.5
20260902091536 82 0.0 0.0 0.00 0.00 0.00 70 1014.5
20260902090536 82 0.0 1.0 0.00 0.00 0.00 69 1014.4
20260902085536 82 0.0 2.0 0.00 0.00 0.00 69 1014.5
20260902084537 83 113 1.0 2.0 0.00 0.00 0.00 68 1014.3
20260902083537 83 113 1.0 4.0 0.00 0.00 0.00 68 1014.4
20260902082536 83 113 1.0 3.0 0.00 0.00 0.00 68 1014.5
20260902081537 83 113 1.0 2.0 0.00 0.00 0.00 68 1014.5
20260902080536 83 113 1.0 3.0 0.00 0.00 0.00 67 1014.5
20260902075536 83 90 2.0 4.0 0.00 0.00 0.00 67 1014.5
20260902074537 84 113 3.0 6.0 0.00 0.00 0.00 67 1014.4
20260902073536 84 113 3.0 7.0 0.00 0.00 0.00 67 1014.4
20260902072536 84 90 3.0 7.0 0.00 0.00 0.00 67 1014.5
20260902071556 84 90 3.0 7.0 0.00 0.00 0.00 67 1014.4
20260902070536 84 90 4.0 8.0 0.00 0.00 0.00 66 1014.5
20260902065536 85 90 4.0 9.0 0.00 0.00 0.00 66 1014.4
20260902064536 85 90 4.0 8.0 0.00 0.00 0.00 66 1014.5
20260902063536 85 90 3.0 8.0 0.00 0.00 0.00 66 1014.6
20260902062536 85 90 4.0 8.0 0.00 0.00 0.00 66 1014.5
20260902061536 85 90 4.0 10.0 0.00 0.00 0.00 65 1014.4
20260902060536 86 90 5.0 9.0 0.00 0.00 0.00 65 1014.4
20260902055536 86 90 6.0 11.0 0.00 0.00 0.00 64 1014.5
20260902054536 86 90 4.0 8.0 0.00 0.00 0.00 64 1014.6
20260902053557 86 90 4.0 11.0 0.00 0.00 0.00 64 1014.4
20260902052536 86 90 5.0 9.0 0.00 0.00 0.00 63 1014.5
20260902051536 87 90 6.0 11.0 0.00 0.00 0.00 63 1014.5
20260902050556 87 90 4.0 10.0 0.00 0.00 0.00 63 1014.5
20260902045536 87 90 4.0 9.0 0.00 0.00 0.00 62 1014.3
20260902044556 88 113 4.0 10.0 0.00 0.00 0.00 61 1014.3
20260902043555 88 90 5.0 10.0 0.00 0.00 0.00 61 1014.4
20260902042535 88 113 7.0 14.0 0.00 0.00 0.00 60 1014.2
20260902041536 89 90 7.0 14.0 0.00 0.00 0.00 59 1014.2
20260902040555 89 90 6.0 12.0 0.00 0.00 0.00 57 1014.1
20260902035555 90 90 6.0 12.0 0.00 0.00 0.00 56 1014.0
20260902034555 90 68 3.0 10.0 0.00 0.00 0.00 56 1013.8
20260902033536 90 0.0 2.0 0.00 0.00 0.00 56 1013.7
20260902032535 91 0.0 2.0 0.00 0.00 0.00 55 1013.6
20260902031555 91 0.0 2.0 0.00 0.00 0.00 54 1013.6
20260902030536 91 0.0 2.0 0.00 0.00 0.00 54 1013.5
20260902025536 92 90 2.0 4.0 0.00 0.00 0.00 53 1013.4
20260902024555 92 90 2.0 4.0 0.00 0.00 0.00 52 1013.2
20260902023535 93 90 3.0 6.0 0.00 0.00 0.00 52 1013.2
20260902022615 93 90 3.0 9.0 0.00 0.00 0.00 51 1013.0
20260902021535 93 90 2.0 4.0 0.00 0.00 0.00 51 1012.7
20260902020535 93 90 1.0 3.0 0.00 0.00 0.00 52 1012.6
20260902015535 93 113 2.0 7.0 0.00 0.00 0.00 51 1012.4
20260902014535 93 0.0 2.0 0.00 0.00 0.00 51 1012.3
20260902013535 93 90 1.0 4.0 0.00 0.00 0.00 50 1012.2
20260902012555 94 90 2.0 4.0 0.00 0.00 0.00 48 1012.1
20260902011535 94 90 1.0 4.0 0.00 0.00 0.00 48 1012.0
20260902010535 94 90 2.0 4.0 0.00 0.00 0.00 47 1011.9
20260902005535 95 0.0 1.0 0.00 0.00 0.00 47 1011.9
20260902004636 95 68 2.0 6.0 0.00 0.00 0.00 46 1011.8
20260902003535 95 90 2.0 4.0 0.00 0.00 0.00 46 1011.9
20260902002535 96 90 1.0 3.0 0.00 0.00 0.00 46 1011.9
20260902001535 96 90 1.0 6.0 0.00 0.00 0.00 45 1012.0
20260902000535 96 113 1.0 3.0 0.00 0.00 0.00 45 1012.2
20260901235535 96 90 4.0 7.0 0.00 0.00 0.00 45 1012.1
20260901234535 96 90 3.0 8.0 0.00 0.00 0.00 45 1012.2
20260901233555 97 90 2.0 7.0 0.00 0.00 0.00 45 1012.2
20260901232535 97 90 2.0 6.0 0.00 0.00 0.00 44 1012.3
20260901231535 97 90 3.0 8.0 0.00 0.00 0.00 44 1012.3
20260901230535 97 90 4.0 8.0 0.00 0.00 0.00 44 1012.4
20260901225535 97 90 3.0 8.0 0.00 0.00 0.00 44 1012.4
20260901224535 97 90 4.0 9.0 0.00 0.00 0.00 44 1012.5
20260901223535 97 90 5.0 10.0 0.00 0.00 0.00 45 1012.6
20260901222535 97 90 5.0 10.0 0.00 0.00 0.00 44 1012.5
20260901221555 97 68 5.0 10.0 0.00 0.00 0.00 43 1012.5
20260901220535 98 68 3.0 7.0 0.00 0.00 0.00 43 1012.5
20260901215535 98 90 5.0 12.0 0.00 0.00 0.00 43 1012.6
20260901214535 99 90 4.0 7.0 0.00 0.00 0.00 41 1012.7
20260901213535 100 90 2.0 5.0 0.00 0.00 0.00 41 1012.8
20260901212535 98 68 2.0 4.0 0.00 0.00 0.00 42 1012.9
20260901211535 100 90 1.0 8.0 0.00 0.00 0.00 42 1013.0
20260901210555 100 68 2.0 8.0 0.00 0.00 0.00 41 1013.1
20260901205535 100 90 1.0 4.0 0.00 0.00 0.00 41 1013.1
20260901204535 99 90 3.0 9.0 0.00 0.00 0.00 41 1013.2
20260901203535 102 68 2.0 8.0 0.00 0.00 0.00 40 1013.3